Mitchell, SD

8:15 AM CDT on August 30, 2016 (GMT -0500)
Mitchell Municipal

Weather History for KMHE - February, 2014

Change the Weather History Date:

Wednesday, February 19, 2014

  Actual Average Record
Temperature  
Mean Temperature 43 °F 25 °F  
Max Temperature 58 °F 35 °F 67 °F (1996)
Min Temperature 27 °F 15 °F -26 °F (1959)
Degree Days  
Heating Degree Days 22 40  
Month to date heating degree days 928 810  
Since 1 July heating degree days 5491 5177  
Cooling Degree Days 0 0  
Month to date cooling degree days 0 0  
Year to date cooling degree days 0 0  
Moisture  
Dew Point 25 °F    
Average Humidity 54    
Maximum Humidity 82    
Minimum Humidity 25    
Precipitation  
Precipitation 0.00 in 0.01 in 1.05 in (1971)
Month to date precipitation 0.20 0.23  
Year to date precipitation 0.37 0.45  
Snow  
Snow 0.00 in - 11.00 in (1971)
Month to date snowfall 3.2  
Since 1 July snowfall 19.4  
Snow Depth 0.00 in    
Sea Level Pressure  
Sea Level Pressure 29.69 in    
Wind  
Wind Speed 12 mph (SSW)    
Max Wind Speed 27 mph    
Max Gust Speed 43 mph    
Visibility 10 miles    
Events      
T = Trace of Precipitation, MM = Missing Value Source: NWS Daily Summary

Daily Weather History Graph

Daily Weather History Graph

Search for Another Location

Airport or City:

Trip Planner

Search our weather history database for the weather conditions in past years. The results will help you decide how hot, cold, wet, or windy it might be!

Date:

Astronomy

Feb. 19, 2014 Rise Set
Actual Time 7:24 AM CST 6:07 PM CST
Civil Twilight 6:55 AM CST 6:37 PM CST
Nautical Twilight 6:22 AM CST 7:10 PM CST
Astronomical Twilight 5:48 AM CST 7:43 PM CST
Moon 11:13 PM CST (2/19) 9:21 AM CST (2/19)
Length of Visible Light 11h 41m
Length of Day
10h 42m
Waning Gibbous, 79% of the Moon is Illuminated
Feb 19
Waning Gibbous
Feb 22
Last Quarter
Mar 1
New
Mar 8
First Quarter
Mar 16
Full

Hourly Weather History & Observations

Time (CST) Temp. Windchill Dew Point Humidity Pressure Visibility Wind Dir Wind Speed Gust Speed Precip Events Conditions
12:53 AM 33.1 °F 24.9 °F 27.0 °F 78% 29.91 in 10.0 mi WSW 10.4 mph - N/A   Clear
1:53 AM 32.0 °F 23.0 °F 25.0 °F 75% 29.90 in 10.0 mi WSW 11.5 mph - N/A   Clear
2:53 AM 30.0 °F 23.2 °F 23.0 °F 75% 29.88 in 10.0 mi West 6.9 mph - N/A   Clear
3:53 AM 28.0 °F 20.0 °F 21.9 °F 78% 29.88 in 10.0 mi WSW 8.1 mph - N/A   Clear
4:53 AM 27.0 °F 19.5 °F 21.9 °F 81% 29.87 in 10.0 mi SW 6.9 mph - N/A   Clear
5:53 AM 28.9 °F 19.8 °F 21.0 °F 72% 29.88 in 10.0 mi SW 10.4 mph - N/A   Clear
6:53 AM 30.0 °F 21.7 °F 21.0 °F 69% 29.87 in 10.0 mi SW 9.2 mph - N/A   Clear
7:53 AM 30.0 °F 23.2 °F 21.9 °F 72% 29.86 in 10.0 mi SSW 6.9 mph - N/A   Clear
8:53 AM 32.0 °F 24.8 °F 25.0 °F 75% 29.83 in 10.0 mi SSE 8.1 mph - N/A   Clear
9:53 AM 33.1 °F 24.9 °F 27.0 °F 78% 29.79 in 10.0 mi SSE 10.4 mph - N/A   Clear
10:53 AM 41.0 °F 33.9 °F 30.9 °F 67% 29.75 in 10.0 mi SSE 12.7 mph - N/A   Clear
1:03 PM - - - N/A% - - North - - N/A   Unknown
1:53 PM 55.9 °F - 23.0 °F 28% 29.54 in 10.0 mi South 24.2 mph 38.0 mph N/A   Unknown
2:53 PM 57.9 °F - 24.1 °F 27% 29.50 in 10.0 mi SSW 26.5 mph 42.6 mph N/A   Clear
3:53 PM 57.9 °F - 23.0 °F 26% 29.48 in 10.0 mi South 20.7 mph 31.1 mph N/A   Clear
4:53 PM 57.9 °F - 23.0 °F 26% 29.47 in 10.0 mi South 17.3 mph - N/A   Clear
5:53 PM 53.1 °F - 24.1 °F 32% 29.47 in 10.0 mi South 18.4 mph - N/A   Clear
6:53 PM 50.0 °F - 24.1 °F 36% 29.47 in 10.0 mi South 15.0 mph 26.5 mph N/A   Clear
7:53 PM 46.0 °F 40.2 °F 25.0 °F 44% 29.47 in 10.0 mi South 12.7 mph 20.7 mph N/A   Clear
8:53 PM 46.0 °F 43.1 °F 25.0 °F 44% 29.53 in 10.0 mi SW 5.8 mph - N/A   Clear
9:53 PM 42.1 °F 37.7 °F 27.0 °F 55% 29.55 in 10.0 mi North 6.9 mph - N/A   Clear
10:53 PM 36.0 °F 26.7 °F 30.0 °F 79% 29.58 in 10.0 mi NW 15.0 mph - N/A   Clear
11:53 PM 33.1 °F 23.9 °F 30.0 °F 89% 29.60 in 10.0 mi NW 12.7 mph - N/A   Clear